Total_Precipitation_Accumulation
1.97 1.94 1.81 1.73 1.64 1.55 1.50 1.48 1.40 1.33 1.25 1.15 1.10 1.09 1.01 0.85 0.74 0.68 0.64 0.80 1.00 0.96 1.07 1.30 1.55 1.87 2.17 2.23 2.24 2.06 1.96 1.89 1.72 1.56 1.51 1.63 1.71 1.63 1.53 1.56 1.49 1.34 1.31
2.11 2.06 1.95 1.80 1.71 1.63 1.52 1.49 1.43 1.39 1.33 1.21 1.09 0.99 1.01 0.99 0.87 0.83 0.75 0.76 0.91 0.90 0.92 1.14 1.41 1.72 2.16 2.42 2.51 2.56 2.37 2.21 2.09 1.84 1.59 1.53 1.62 1.64 1.64 1.63 1.66 1.59 1.47
2.29 2.20 2.08 1.96 1.79 1.75 1.73 1.66 1.62 1.52 1.46 1.34 1.24 1.10 1.00 1.00 0.94 0.90 0.87 0.84 0.83 0.80 0.83 0.98 1.20 1.52 1.89 2.26 2.51 2.72 2.79 2.52 2.39 2.27 1.97 1.67 1.62 1.69 1.74 1.76 1.77 1.84 1.75
2.49 2.48 2.25 2.09 1.87 1.82 1.84 1.82 1.73 1.66 1.53 1.41 1.33 1.20 1.06 1.00 0.97 0.94 0.93 0.91 0.88 0.79 0.78 0.84 0.94 1.21 1.58 1.96 2.28 2.56 3.02 2.93 2.69 2.55 2.45 2.08 1.76 1.70 1.76 1.86 1.92 1.96 2.05
2.55 2.64 2.58 2.35 2.16 2.06 1.92 1.84 1.75 1.65 1.57 1.48 1.41 1.32 1.18 1.07 1.01 1.00 0.94 0.88 0.84 0.82 0.80 0.83 0.90 1.00 1.27 1.63 2.04 2.41 2.99 3.26 3.15 3.01 2.89 2.66 2.22 1.91 1.84 1.91 2.04 2.10 2.22
2.45 2.50 2.59 2.57 2.46 2.37 2.21 2.03 1.91 1.73 1.60 1.54 1.54 1.52 1.35 1.20 1.12 1.07 1.03 0.94 0.84 0.78 0.81 0.83 0.88 0.94 1.08 1.31 1.67 2.10 2.61 3.05 3.23 3.30 3.26 3.28 3.04 2.52 2.20 2.11 2.18 2.33 2.45
2.40 2.39 2.33 2.41 2.43 2.36 2.25 2.14 2.05 1.99 1.84 1.68 1.76 1.82 1.68 1.39 1.20 1.08 1.04 1.02 0.92 0.82 0.79 0.81 0.86 0.90 0.97 1.14 1.36 1.70 2.17 2.67 3.04 3.25 3.29 3.38 3.60 3.40 2.93 2.59 2.49 2.57 2.70
2.29 2.38 2.38 2.27 2.24 2.23 2.21 2.13 2.05 1.99 1.95 1.81 1.80 1.91 1.91 1.79 1.43 1.09 0.99 0.97 0.96 0.94 0.88 0.82 0.82 0.89 0.95 1.00 1.02 1.25 1.62 2.16 2.76 3.23 3.44 3.52 3.72 4.01 3.83 3.34 3.06 3.00 3.09
2.22 2.18 2.32 2.33 2.22 2.17 2.13 2.08 1.99 1.90 1.88 1.75 1.59 1.80 1.89 1.64 1.32 1.11 0.98 0.89 0.87 0.95 0.94 0.89 0.86 0.83 0.92 1.01 0.99 1.02 1.21 1.63 2.27 2.87 3.38 3.68 3.85 4.20 4.43 4.18 3.74 3.53 3.59
2.27 2.18 2.17 2.25 2.27 2.15 2.02 2.00 2.02 1.95 1.96 1.95 1.74 1.52 1.49 1.39 1.38 1.21 1.04 0.98 0.92 0.90 0.94 0.94 0.93 0.88 0.88 0.98 1.05 1.04 1.11 1.31 1.79 2.44 3.02 3.64 4.03 4.35 4.82 4.80 4.49 4.03 3.80
2.26 2.21 2.20 2.21 2.20 2.15 2.01 1.93 1.96 2.02 2.04 2.02 1.93 1.69 1.50 1.28 1.20 1.29 1.10 0.99 1.07 1.02 0.96 0.98 1.00 0.99 0.94 0.95 1.04 1.08 1.18 1.32 1.68 2.15 2.68 3.34 4.18 4.57 5.06 5.30 4.93 4.34 3.91
2.30 2.20 2.12 2.16 2.12 2.01 1.95 1.89 1.88 1.87 1.90 1.92 1.87 1.77 1.68 1.57 1.34 1.30 1.22 1.00 0.99 1.01 1.03 1.04 1.09 1.07 1.03 1.03 1.07 1.32 1.36 1.48 1.65 1.93 2.26 2.73 3.47 4.29 4.85 5.20 5.07 4.56 4.13
2.26 2.19 2.12 2.07 2.05 1.95 1.85 1.83 1.85 1.83 1.76 1.77 1.79 1.70 1.59 1.47 1.37 1.41 1.51 1.37 1.19 1.04 1.09 1.13 1.08 1.09 1.11 1.16 1.24 1.44 1.51 1.52 1.47 1.66 1.88 2.06 2.46 3.16 4.01 4.73 5.11 4.93 4.52
2.04 1.98 2.07 2.03 1.99 1.98 1.96 1.93 1.87 1.85 1.82 1.73 1.64 1.60 1.60 1.48 1.44 1.55 1.68 1.79 1.72 1.31 1.11 1.10 1.06 1.04 1.16 1.20 1.30 1.48 1.34 1.48 1.49 1.56 1.68 1.81 1.98 2.34 3.01 3.84 4.72 5.25 5.06
1.97 1.96 1.98 1.99 1.95 2.03 2.11 2.15 2.08 1.91 1.85 1.80 1.72 1.61 1.60 1.55 1.49 1.49 1.57 1.76 2.10 1.93 1.31 0.98 1.00 1.05 1.14 1.25 1.31 1.21 1.15 1.41 1.51 1.57 1.68 1.76 1.87 2.04 2.38 2.96 3.63 4.60 5.25
1.92 1.96 1.98 2.01 1.97 1.93 2.01 2.12 2.10 2.01 2.00 1.90 1.84 1.79 1.64 1.56 1.56 1.59 1.66 1.68 1.80 1.99 1.66 1.01 0.88 0.95 1.11 1.32 1.46 1.24 1.20 1.43 1.47 1.54 1.55 1.58 1.75 1.93 2.16 2.46 2.87 3.48 4.43
1.88 1.88 1.87 1.89 1.95 1.93 1.90 1.99 1.97 1.94 1.97 1.90 1.85 1.86 1.71 1.60 1.71 1.75 1.80 1.83 1.76 1.81 1.84 1.21 0.95 1.02 1.27 1.42 1.50 1.37 1.34 1.34 1.34 1.50 1.55 1.56 1.61 1.83 2.03 2.20 2.40 2.79 3.47
1.87 1.79 1.75 1.76 1.82 1.86 1.85 1.90 1.92 1.87 1.87 1.83 1.78 1.80 1.78 1.68 1.68 1.72 1.83 1.85 1.76 1.68 1.78 1.56 1.21 1.19 1.35 1.50 1.56 1.54 1.51 1.46 1.33 1.46 1.53 1.62 1.61 1.74 1.96 2.08 2.19 2.41 2.79
1.93 1.77 1.72 1.74 1.77 1.85 1.84 1.80 1.91 1.91 1.82 1.74 1.69 1.73 1.74 1.74 1.67 1.62 1.71 1.78 1.71 1.67 1.72 1.74 1.46 1.31 1.41 1.57 1.74 1.78 1.72 1.69 1.53 1.52 1.55 1.63 1.74 1.77 1.90 2.03 2.15 2.27 2.40
1.93 1.83 1.70 1.67 1.74 1.88 1.91 1.89 1.97 1.96 1.84 1.71 1.60 1.59 1.66 1.78 1.80 1.77 1.78 1.75 1.80 1.91 1.89 1.90 1.72 1.53 1.55 1.67 1.85 1.96 1.98 1.91 1.80 1.61 1.65 1.72 1.80 1.86 1.86 1.89 1.90 1.97 2.09
1.74 1.76 1.77 1.70 1.73 1.97 2.20 2.34 2.22 1.97 1.80 1.70 1.52 1.43 1.51 1.80 2.03 2.19 2.23 2.05 2.07 2.28 2.27 2.22 2.07 1.83 1.70 1.76 1.89 1.89 1.99 1.95 1.93 1.79 1.69 1.70 1.70 1.68 1.69 1.76 1.80 1.82 1.92
1.77 1.73 1.75 1.73 1.69 1.88 2.36 2.60 2.21 1.82 1.67 1.64 1.58 1.43 1.45 1.75 1.95 2.14 2.31 2.25 2.24 2.44 2.57 2.52 2.34 2.03 1.66 1.54 1.64 1.90 2.16 2.37 2.34 2.00 1.81 1.84 1.68 1.75 1.72 1.64 1.81 1.88 1.91
1.79 1.75 1.72 1.71 1.68 1.76 2.18 2.40 2.17 1.81 1.64 1.55 1.49 1.46 1.50 1.61 1.78 1.78 1.97 2.04 2.00 2.16 2.41 2.52 2.50 2.02 1.77 1.65 1.92 2.23 2.28 2.39 2.27 2.13 2.13 2.25 1.91 1.84 1.77 1.81 1.93 1.87 1.95
1.71 1.70 1.70 1.67 1.64 1.72 2.08 2.31 2.17 1.84 1.73 1.62 1.57 1.48 1.42 1.46 1.62 1.82 1.92 1.90 1.76 1.78 1.99 2.17 2.38 2.16 1.96 2.00 2.38 2.74 2.88 2.87 2.55 2.35 2.29 2.59 2.18 1.95 1.86 1.83 1.93 1.83 1.85
1.73 1.65 1.63 1.67 1.63 1.67 2.02 2.35 2.23 1.87 1.81 1.70 1.63 1.54 1.41 1.35 1.63 1.88 1.83 1.77 1.66 1.65 1.78 2.00 2.17 2.25 2.30 2.47 2.82 3.31 3.54 3.56 3.24 2.76 2.46 2.55 2.42 2.23 2.22 2.20 2.14 2.03 1.85
1.66 1.66 1.62 1.63 1.61 1.59 1.89 2.30 2.39 1.91 1.79 1.69 1.67 1.59 1.66 1.61 1.77 1.83 1.69 1.76 1.87 1.69 1.59 1.64 1.71 1.77 1.80 1.97 2.46 2.93 3.37 3.60 3.36 3.19 2.68 2.53 2.51 2.56 3.06 2.81 2.39 2.08 1.90